Data supplied by UK-AIR on 26/3/2019
All Data GMT hour ending 
Status: R =Ratified P=Provisional,P*=As supplied
,,Cwmbran,,,,,,,,,,,,,,,,,,,,,,,
Date,time,"Nitric oxide",status,unit,"Nitrogen dioxide",status,unit,"Nitrogen oxides as nitrogen dioxide",status,unit,"Ozone",status,unit
 
01-01-2018,01:00,0.35051,R,ugm-3,2.23134,R,ugm-3,2.76879,R,ugm-3,78.09839,R,ugm-3
01-01-2018,02:00,0.41424,R,ugm-3,1.89898,R,ugm-3,2.53414,R,ugm-3,82.48893,R,ugm-3
01-01-2018,03:00,0.35051,R,ugm-3,0.63577,R,ugm-3,1.17321,R,ugm-3,85.16650,R,ugm-3
01-01-2018,04:00,0.47797,R,ugm-3,0.76884,R,ugm-3,1.50171,R,ugm-3,83.52005,R,ugm-3
01-01-2018,05:00,0.44611,R,ugm-3,0.39534,R,ugm-3,1.07936,R,ugm-3,85.36607,R,ugm-3
01-01-2018,06:00,0.35051,R,ugm-3,0.77655,R,ugm-3,1.31400,R,ugm-3,83.27058,R,ugm-3
01-01-2018,07:00,0.54170,R,ugm-3,6.20869,R,ugm-3,7.03928,R,ugm-3,70.69767,R,ugm-3
01-01-2018,08:00,0.50984,R,ugm-3,3.48876,R,ugm-3,4.27050,R,ugm-3,67.20520,R,ugm-3
01-01-2018,09:00,0.63730,R,ugm-3,6.95375,R,ugm-3,7.93093,R,ugm-3,58.47401,R,ugm-3
01-01-2018,10:00,0.70103,R,ugm-3,10.75110,R,ugm-3,11.82600,R,ugm-3,57.27659,R,ugm-3
01-01-2018,11:00,0.50984,R,ugm-3,3.81726,R,ugm-3,4.59900,R,ugm-3,73.04262,R,ugm-3
01-01-2018,12:00,0.73289,R,ugm-3,3.66296,R,ugm-3,4.78671,R,ugm-3,74.33983,R,ugm-3
01-01-2018,13:00,0.82849,R,ugm-3,2.76553,R,ugm-3,4.03586,R,ugm-3,75.63703,R,ugm-3
01-01-2018,14:00,0.63730,R,ugm-3,2.82404,R,ugm-3,3.80121,R,ugm-3,75.18800,R,ugm-3
01-01-2018,15:00,0.44611,R,ugm-3,2.88255,R,ugm-3,3.56657,R,ugm-3,75.23789,R,ugm-3
01-01-2018,16:00,0.57357,R,ugm-3,2.87483,R,ugm-3,3.75428,R,ugm-3,75.03832,R,ugm-3
01-01-2018,17:00,0.47797,R,ugm-3,3.06833,R,ugm-3,3.80121,R,ugm-3,74.98843,R,ugm-3
01-01-2018,18:00,0.54170,R,ugm-3,2.78290,R,ugm-3,3.61350,R,ugm-3,75.53725,R,ugm-3
01-01-2018,19:00,0.41424,R,ugm-3,2.22748,R,ugm-3,2.86264,R,ugm-3,77.48305,R,ugm-3
01-01-2018,20:00,0.41424,R,ugm-3,1.61741,R,ugm-3,2.25257,R,ugm-3,78.08176,R,ugm-3
01-01-2018,21:00,0.47797,R,ugm-3,1.98898,R,ugm-3,2.72186,R,ugm-3,75.98628,R,ugm-3
01-01-2018,22:00,0.54170,R,ugm-3,1.93819,R,ugm-3,2.76879,R,ugm-3,73.04262,R,ugm-3
01-01-2018,23:00,0.50984,R,ugm-3,1.37698,R,ugm-3,2.15871,R,ugm-3,71.59574,R,ugm-3
01-01-2018,24:00,0.44611,R,ugm-3,1.28698,R,ugm-3,1.97100,R,ugm-3,69.45036,R,ugm-3
02-01-2018,01:00,0.47819,R,ugm-3,3.58563,R,ugm-3,4.31884,R,ugm-3,65.52548,R,ugm-3
02-01-2018,02:00,0.51007,R,ugm-3,5.60228,R,ugm-3,6.38437,R,ugm-3,61.33451,R,ugm-3
02-01-2018,03:00,0.60571,R,ugm-3,7.28646,R,ugm-3,8.21519,R,ugm-3,50.34153,R,ugm-3
02-01-2018,04:00,0.82886,R,ugm-3,11.96729,R,ugm-3,13.23819,R,ugm-3,42.90755,R,ugm-3
02-01-2018,05:00,0.79698,R,ugm-3,12.48561,R,ugm-3,13.70763,R,ugm-3,31.83142,R,ugm-3
02-01-2018,06:00,0.98826,R,ugm-3,18.85836,R,ugm-3,20.37367,R,ugm-3,23.05034,R,ugm-3
02-01-2018,07:00,1.53020,R,ugm-3,30.18587,R,ugm-3,32.53215,R,ugm-3,23.94840,R,ugm-3
02-01-2018,08:00,2.64597,R,ugm-3,44.81153,R,ugm-3,48.86864,R,ugm-3,14.76818,R,ugm-3
02-01-2018,09:00,1.65772,R,ugm-3,28.25342,R,ugm-3,30.79522,R,ugm-3,33.02884,R,ugm-3
02-01-2018,10:00,0.98826,R,ugm-3,21.76889,R,ugm-3,23.28419,R,ugm-3,43.00734,R,ugm-3
02-01-2018,11:00,0.95638,R,ugm-3,18.01531,R,ugm-3,19.48173,R,ugm-3,49.39358,R,ugm-3
02-01-2018,12:00,1.33893,R,ugm-3,18.74317,R,ugm-3,20.79616,R,ugm-3,53.83401,R,ugm-3
02-01-2018,13:00,1.11577,R,ugm-3,8.14740,R,ugm-3,9.85823,R,ugm-3,69.30068,R,ugm-3
02-01-2018,14:00,0.82886,R,ugm-3,6.14624,R,ugm-3,7.41714,R,ugm-3,74.43961,R,ugm-3
02-01-2018,15:00,0.60571,R,ugm-3,5.69036,R,ugm-3,6.61910,R,ugm-3,74.28993,R,ugm-3
02-01-2018,16:00,,,,,,,,,,71.29638,R,ugm-3
02-01-2018,17:00,0.57383,R,ugm-3,5.69230,R,ugm-3,6.57215,R,ugm-3,75.48735,R,ugm-3
02-01-2018,18:00,0.54195,R,ugm-3,7.19644,R,ugm-3,8.02741,R,ugm-3,71.49595,R,ugm-3
02-01-2018,19:00,0.76510,R,ugm-3,14.36530,R,ugm-3,15.53844,R,ugm-3,59.87100,R,ugm-3
02-01-2018,20:00,0.54195,R,ugm-3,8.22921,R,ugm-3,9.06018,R,ugm-3,64.71057,R,ugm-3
02-01-2018,21:00,0.57383,R,ugm-3,3.25121,R,ugm-3,4.13107,R,ugm-3,69.15101,R,ugm-3
02-01-2018,22:00,0.51007,R,ugm-3,0.86095,R,ugm-3,1.64304,R,ugm-3,75.28778,R,ugm-3
02-01-2018,23:00,0.31879,R,ugm-3,1.24812,R,ugm-3,1.73693,R,ugm-3,79.62843,R,ugm-3
02-01-2018,24:00,0.57383,R,ugm-3,2.12456,R,ugm-3,3.00441,R,ugm-3,80.32693,R,ugm-3
03-01-2018,01:00,0.41406,R,ugm-3,1.48265,R,ugm-3,2.11753,R,ugm-3,83.75288,R,ugm-3
03-01-2018,02:00,0.50961,R,ugm-3,0.25384,R,ugm-3,1.03524,R,ugm-3,88.27646,R,ugm-3
03-01-2018,03:00,0.41406,R,ugm-3,0.40035,R,ugm-3,1.03524,R,ugm-3,89.10801,R,ugm-3
03-01-2018,04:00,0.50961,R,ugm-3,0.25384,R,ugm-3,1.03524,R,ugm-3,89.15790,R,ugm-3
03-01-2018,05:00,0.35036,R,ugm-3,0.49803,R,ugm-3,1.03524,R,ugm-3,87.71102,R,ugm-3
03-01-2018,06:00,0.41406,R,ugm-3,0.68269,R,ugm-3,1.31758,R,ugm-3,85.46585,R,ugm-3
03-01-2018,07:00,0.47777,R,ugm-3,1.29086,R,ugm-3,2.02342,R,ugm-3,83.56994,R,ugm-3
03-01-2018,08:00,0.50961,R,ugm-3,2.46548,R,ugm-3,3.24688,R,ugm-3,81.82370,R,ugm-3
03-01-2018,09:00,0.44591,R,ugm-3,3.31606,R,ugm-3,3.99978,R,ugm-3,80.57639,R,ugm-3
03-01-2018,10:00,0.63702,R,ugm-3,3.25831,R,ugm-3,4.23506,R,ugm-3,80.07746,R,ugm-3
03-01-2018,11:00,0.57332,R,ugm-3,3.59127,R,ugm-3,4.47034,R,ugm-3,78.38112,R,ugm-3
03-01-2018,12:00,1.33774,R,ugm-3,5.19549,R,ugm-3,7.24666,R,ugm-3,77.03402,R,ugm-3
03-01-2018,13:00,0.63702,R,ugm-3,4.15238,R,ugm-3,5.12913,R,ugm-3,78.13166,R,ugm-3
03-01-2018,14:00,0.82812,R,ugm-3,4.80048,R,ugm-3,6.07025,R,ugm-3,77.43316,R,ugm-3
03-01-2018,15:00,0.66887,R,ugm-3,4.05649,R,ugm-3,5.08207,R,ugm-3,77.93209,R,ugm-3
03-01-2018,16:00,0.60517,R,ugm-3,4.62472,R,ugm-3,5.55263,R,ugm-3,77.63273,R,ugm-3
03-01-2018,17:00,0.54147,R,ugm-3,4.76945,R,ugm-3,5.59969,R,ugm-3,78.97983,R,ugm-3
03-01-2018,18:00,0.38221,R,ugm-3,4.73130,R,ugm-3,5.31735,R,ugm-3,78.92994,R,ugm-3
03-01-2018,19:00,0.54147,R,ugm-3,4.81651,R,ugm-3,5.64675,R,ugm-3,79.67832,R,ugm-3
03-01-2018,20:00,0.50961,R,ugm-3,4.48890,R,ugm-3,5.27030,R,ugm-3,79.72822,R,ugm-3
03-01-2018,21:00,0.41406,R,ugm-3,3.12961,R,ugm-3,3.76450,R,ugm-3,82.17295,R,ugm-3
03-01-2018,22:00,0.41406,R,ugm-3,3.08256,R,ugm-3,3.71744,R,ugm-3,85.21639,R,ugm-3
03-01-2018,23:00,0.54147,R,ugm-3,3.92244,R,ugm-3,4.75268,R,ugm-3,83.47015,R,ugm-3
03-01-2018,24:00,0.38221,R,ugm-3,3.42942,R,ugm-3,4.01546,R,ugm-3,82.27273,R,ugm-3
04-01-2018,01:00,0.41369,R,ugm-3,2.10145,R,ugm-3,2.73577,R,ugm-3,84.48463,R,ugm-3
04-01-2018,02:00,0.57281,R,ugm-3,6.66867,R,ugm-3,7.54696,R,ugm-3,65.79158,R,ugm-3
04-01-2018,03:00,0.50916,R,ugm-3,7.42661,R,ugm-3,8.20732,R,ugm-3,64.51100,R,ugm-3
04-01-2018,04:00,0.44552,R,ugm-3,6.39216,R,ugm-3,7.07528,R,ugm-3,64.21165,R,ugm-3
04-01-2018,05:00,0.41369,R,ugm-3,5.68626,R,ugm-3,6.32058,R,ugm-3,69.35058,R,ugm-3
04-01-2018,06:00,0.44552,R,ugm-3,8.84492,R,ugm-3,9.52804,R,ugm-3,63.81251,R,ugm-3
04-01-2018,07:00,0.60463,R,ugm-3,10.01601,R,ugm-3,10.94309,R,ugm-3,57.87530,R,ugm-3
04-01-2018,08:00,0.44552,R,ugm-3,5.21295,R,ugm-3,5.89606,R,ugm-3,67.15531,R,ugm-3
04-01-2018,09:00,1.14562,R,ugm-3,2.77159,R,ugm-3,4.52818,R,ugm-3,75.43746,R,ugm-3
04-01-2018,10:00,2.06847,R,ugm-3,3.62065,R,ugm-3,6.79227,R,ugm-3,77.58284,R,ugm-3
04-01-2018,11:00,0.89104,R,ugm-3,2.31291,R,ugm-3,3.67914,R,ugm-3,82.17295,R,ugm-3
04-01-2018,12:00,0.60463,R,ugm-3,1.76152,R,ugm-3,2.68860,R,ugm-3,85.46585,R,ugm-3
04-01-2018,13:00,0.66828,R,ugm-3,2.93748,R,ugm-3,3.96216,R,ugm-3,82.22284,R,ugm-3
04-01-2018,14:00,1.17744,R,ugm-3,3.71334,R,ugm-3,5.51872,R,ugm-3,79.62843,R,ugm-3
04-01-2018,15:00,2.00483,R,ugm-3,5.08613,R,ugm-3,8.16015,R,ugm-3,80.32693,R,ugm-3
04-01-2018,16:00,0.76374,R,ugm-3,4.63067,R,ugm-3,5.80173,R,ugm-3,81.22499,R,ugm-3
04-01-2018,17:00,0.63645,R,ugm-3,5.76922,R,ugm-3,6.74510,R,ugm-3,80.62628,R,ugm-3
04-01-2018,18:00,0.54099,R,ugm-3,7.51933,R,ugm-3,8.34883,R,ugm-3,75.68692,R,ugm-3
04-01-2018,19:00,0.60463,R,ugm-3,8.03493,R,ugm-3,8.96202,R,ugm-3,72.54370,R,ugm-3
04-01-2018,20:00,0.63645,R,ugm-3,7.46728,R,ugm-3,8.44316,R,ugm-3,71.84520,R,ugm-3
04-01-2018,21:00,0.47734,R,ugm-3,10.06968,R,ugm-3,10.80159,R,ugm-3,67.55445,R,ugm-3
04-01-2018,22:00,0.50916,R,ugm-3,4.78518,R,ugm-3,5.56588,R,ugm-3,75.93639,R,ugm-3
04-01-2018,23:00,0.63645,R,ugm-3,13.64636,R,ugm-3,14.62224,R,ugm-3,62.56520,R,ugm-3
04-01-2018,24:00,0.66828,R,ugm-3,23.07843,R,ugm-3,24.10311,R,ugm-3,48.99444,R,ugm-3
05-01-2018,01:00,0.66768,R,ugm-3,13.82240,R,ugm-3,14.84617,R,ugm-3,55.54698,R,ugm-3
05-01-2018,02:00,0.60409,R,ugm-3,9.33367,R,ugm-3,10.25993,R,ugm-3,59.40534,R,ugm-3
05-01-2018,03:00,0.47692,R,ugm-3,1.86918,R,ugm-3,2.60044,R,ugm-3,82.32263,R,ugm-3
05-01-2018,04:00,0.41333,R,ugm-3,1.16291,R,ugm-3,1.79667,R,ugm-3,80.87574,R,ugm-3
05-01-2018,05:00,0.44512,R,ugm-3,3.43092,R,ugm-3,4.11343,R,ugm-3,72.49380,R,ugm-3
05-01-2018,06:00,0.44512,R,ugm-3,2.91083,R,ugm-3,3.59334,R,ugm-3,82.02327,R,ugm-3
05-01-2018,07:00,0.50871,R,ugm-3,2.62421,R,ugm-3,3.40422,R,ugm-3,86.11446,R,ugm-3
05-01-2018,08:00,0.44512,R,ugm-3,3.05267,R,ugm-3,3.73518,R,ugm-3,87.11231,R,ugm-3
05-01-2018,09:00,0.69948,R,ugm-3,5.45223,R,ugm-3,6.52475,R,ugm-3,82.72177,R,ugm-3
05-01-2018,10:00,0.66768,R,ugm-3,5.78467,R,ugm-3,6.80843,R,ugm-3,80.52650,R,ugm-3
05-01-2018,11:00,1.04922,R,ugm-3,6.14528,R,ugm-3,7.75405,R,ugm-3,77.68262,R,ugm-3
05-01-2018,12:00,1.14460,R,ugm-3,5.62078,R,ugm-3,7.37580,R,ugm-3,77.53295,R,ugm-3
05-01-2018,13:00,1.23998,R,ugm-3,6.32558,R,ugm-3,8.22686,R,ugm-3,75.88649,R,ugm-3
05-01-2018,14:00,0.89024,R,ugm-3,6.86184,R,ugm-3,8.22686,R,ugm-3,74.53940,R,ugm-3
05-01-2018,15:00,0.95383,R,ugm-3,8.98653,R,ugm-3,10.44906,R,ugm-3,71.44606,R,ugm-3
05-01-2018,16:00,1.33536,R,ugm-3,19.79619,R,ugm-3,21.84372,R,ugm-3,58.97294,R,ugm-3
05-01-2018,17:00,6.80400,R,ugm-3,53.91650,R,ugm-3,64.34915,R,ugm-3,27.44088,R,ugm-3
05-01-2018,18:00,27.97906,R,ugm-3,75.11223,R,ugm-3,118.01285,R,ugm-3,3.89162,R,ugm-3
05-01-2018,19:00,62.92109,R,ugm-3,76.90100,R,ugm-3,173.37865,R,ugm-3,2.19527,R,ugm-3
05-01-2018,20:00,39.83836,R,ugm-3,67.04630,R,ugm-3,128.13094,R,ugm-3,1.89592,R,ugm-3
05-01-2018,21:00,41.55526,R,ugm-3,61.43507,R,ugm-3,125.15225,R,ugm-3,2.04559,R,ugm-3
05-01-2018,22:00,9.15678,R,ugm-3,45.95912,R,ugm-3,59.99932,R,ugm-3,6.98495,R,ugm-3
05-01-2018,23:00,2.76611,R,ugm-3,31.03016,R,ugm-3,35.27147,R,ugm-3,19.15872,R,ugm-3
05-01-2018,24:00,14.21209,R,ugm-3,38.53872,R,ugm-3,60.33029,R,ugm-3,10.02839,R,ugm-3
06-01-2018,01:00,1.36594,R,ugm-3,17.66850,R,ugm-3,19.76291,R,ugm-3,28.67156,R,ugm-3
06-01-2018,02:00,0.88945,R,ugm-3,12.80672,R,ugm-3,14.17053,R,ugm-3,25.21234,R,ugm-3
06-01-2018,03:00,0.92122,R,ugm-3,9.25093,R,ugm-3,10.66344,R,ugm-3,32.57980,R,ugm-3
06-01-2018,04:00,1.27064,R,ugm-3,7.38814,R,ugm-3,9.33644,R,ugm-3,44.90325,R,ugm-3
06-01-2018,05:00,1.20711,R,ugm-3,8.76517,R,ugm-3,10.61605,R,ugm-3,33.07873,R,ugm-3
06-01-2018,06:00,1.11182,R,ugm-3,8.57954,R,ugm-3,10.28430,R,ugm-3,35.02454,R,ugm-3
06-01-2018,07:00,1.04828,R,ugm-3,9.62482,R,ugm-3,11.23216,R,ugm-3,43.60605,R,ugm-3
06-01-2018,08:00,3.27191,R,ugm-3,11.52333,R,ugm-3,16.54018,R,ugm-3,44.10497,R,ugm-3
06-01-2018,09:00,5.52730,R,ugm-3,14.60535,R,ugm-3,23.08043,R,ugm-3,38.66669,R,ugm-3
06-01-2018,10:00,3.43074,R,ugm-3,14.45512,R,ugm-3,19.71552,R,ugm-3,35.82282,R,ugm-3
06-01-2018,11:00,4.35196,R,ugm-3,17.21320,R,ugm-3,23.88611,R,ugm-3,32.52991,R,ugm-3
06-01-2018,12:00,4.66962,R,ugm-3,19.09578,R,ugm-3,26.25576,R,ugm-3,28.53851,R,ugm-3
06-01-2018,13:00,3.11308,R,ugm-3,20.25022,R,ugm-3,25.02354,R,ugm-3,27.04174,R,ugm-3
06-01-2018,14:00,2.73189,R,ugm-3,18.74941,R,ugm-3,22.93825,R,ugm-3,30.98324,R,ugm-3
06-01-2018,15:00,2.76365,R,ugm-3,13.15572,R,ugm-3,17.39326,R,ugm-3,34.42583,R,ugm-3
06-01-2018,16:00,2.19186,R,ugm-3,15.59642,R,ugm-3,18.95723,R,ugm-3,31.13292,R,ugm-3
06-01-2018,17:00,1.84243,R,ugm-3,15.42131,R,ugm-3,18.24633,R,ugm-3,41.90970,R,ugm-3
06-01-2018,18:00,1.71537,R,ugm-3,11.72990,R,ugm-3,14.36010,R,ugm-3,50.89035,R,ugm-3
06-01-2018,19:00,1.30241,R,ugm-3,11.27306,R,ugm-3,13.27006,R,ugm-3,57.02713,R,ugm-3
06-01-2018,20:00,0.95298,R,ugm-3,9.86572,R,ugm-3,11.32694,R,ugm-3,58.22455,R,ugm-3
06-01-2018,21:00,0.92122,R,ugm-3,8.63482,R,ugm-3,10.04733,R,ugm-3,58.22455,R,ugm-3
06-01-2018,22:00,0.92122,R,ugm-3,8.39785,R,ugm-3,9.81037,R,ugm-3,59.22240,R,ugm-3
06-01-2018,23:00,0.79415,R,ugm-3,7.88179,R,ugm-3,9.09947,R,ugm-3,59.37208,R,ugm-3
06-01-2018,24:00,0.67768,R,ugm-3,8.12357,R,ugm-3,9.16266,R,ugm-3,58.22455,R,ugm-3
07-01-2018,01:00,0.76171,R,ugm-3,8.33314,R,ugm-3,9.50107,R,ugm-3,56.41179,R,ugm-3
07-01-2018,02:00,0.88866,R,ugm-3,8.56603,R,ugm-3,9.92862,R,ugm-3,54.28304,R,ugm-3
07-01-2018,03:00,0.66650,R,ugm-3,7.05397,R,ugm-3,8.07591,R,ugm-3,55.82971,R,ugm-3
07-01-2018,04:00,0.72997,R,ugm-3,6.00653,R,ugm-3,7.12580,R,ugm-3,56.72777,R,ugm-3
07-01-2018,05:00,0.76171,R,ugm-3,5.10277,R,ugm-3,6.27071,R,ugm-3,58.12476,R,ugm-3
07-01-2018,06:00,0.63476,R,ugm-3,5.29743,R,ugm-3,6.27071,R,ugm-3,58.97294,R,ugm-3
07-01-2018,07:00,1.04735,R,ugm-3,4.94983,R,ugm-3,6.55574,R,ugm-3,60.02068,R,ugm-3
07-01-2018,08:00,1.14256,R,ugm-3,4.85134,R,ugm-3,6.60325,R,ugm-3,58.72347,R,ugm-3
07-01-2018,09:00,1.14256,R,ugm-3,5.18388,R,ugm-3,6.93578,R,ugm-3,57.52605,R,ugm-3
07-01-2018,10:00,1.33299,R,ugm-3,5.50946,R,ugm-3,7.55335,R,ugm-3,56.02928,R,ugm-3
07-01-2018,11:00,1.80906,R,ugm-3,5.44458,R,ugm-3,8.21843,R,ugm-3,55.92949,R,ugm-3
07-01-2018,12:00,2.22165,R,ugm-3,5.19199,R,ugm-3,8.59847,R,ugm-3,60.36993,R,ugm-3
07-01-2018,13:00,1.93601,R,ugm-3,4.72736,R,ugm-3,7.69587,R,ugm-3,62.11616,R,ugm-3
07-01-2018,14:00,1.58689,R,ugm-3,4.12254,R,ugm-3,6.55574,R,ugm-3,64.76047,R,ugm-3
07-01-2018,15:00,1.74558,R,ugm-3,4.59180,R,ugm-3,7.26832,R,ugm-3,64.81036,R,ugm-3
07-01-2018,16:00,1.99948,R,ugm-3,5.77016,R,ugm-3,8.83600,R,ugm-3,63.91229,R,ugm-3
07-01-2018,17:00,2.03122,R,ugm-3,7.71673,R,ugm-3,10.83122,R,ugm-3,61.01853,R,ugm-3
07-01-2018,18:00,1.58689,R,ugm-3,8.06548,R,ugm-3,10.49868,R,ugm-3,61.36778,R,ugm-3
07-01-2018,19:00,1.36473,R,ugm-3,7.78856,R,ugm-3,9.88112,R,ugm-3,63.76262,R,ugm-3
07-01-2018,20:00,1.20604,R,ugm-3,7.69934,R,ugm-3,9.54858,R,ugm-3,65.20950,R,ugm-3
07-01-2018,21:00,0.95214,R,ugm-3,7.37608,R,ugm-3,8.83600,R,ugm-3,64.91014,R,ugm-3
07-01-2018,22:00,0.88866,R,ugm-3,6.04824,R,ugm-3,7.41084,R,ugm-3,65.15961,R,ugm-3
07-01-2018,23:00,0.82518,R,ugm-3,5.62301,R,ugm-3,6.88828,R,ugm-3,64.21165,R,ugm-3
07-01-2018,24:00,0.72997,R,ugm-3,5.10393,R,ugm-3,6.22320,R,ugm-3,64.11186,R,ugm-3
08-01-2018,01:00,0.76103,R,ugm-3,4.16628,R,ugm-3,5.33318,R,ugm-3,64.92677,R,ugm-3
08-01-2018,02:00,0.53906,R,ugm-3,4.22092,R,ugm-3,5.04747,R,ugm-3,62.13279,R,ugm-3
08-01-2018,03:00,1.30009,R,ugm-3,5.53014,R,ugm-3,7.52359,R,ugm-3,60.02068,R,ugm-3
08-01-2018,04:00,3.93199,R,ugm-3,9.87533,R,ugm-3,15.90429,R,ugm-3,56.27874,R,ugm-3
08-01-2018,05:00,2.94899,R,ugm-3,8.04934,R,ugm-3,12.57106,R,ugm-3,55.87960,R,ugm-3
08-01-2018,06:00,2.63189,R,ugm-3,7.96413,R,ugm-3,11.99965,R,ugm-3,55.77982,R,ugm-3
08-01-2018,07:00,2.53677,R,ugm-3,9.30043,R,ugm-3,13.19009,R,ugm-3,54.58240,R,ugm-3
08-01-2018,08:00,3.36121,R,ugm-3,13.94088,R,ugm-3,19.09468,R,ugm-3,49.59315,R,ugm-3
08-01-2018,09:00,7.00782,R,ugm-3,23.68239,R,ugm-3,34.42756,R,ugm-3,39.66454,R,ugm-3
08-01-2018,10:00,5.92969,R,ugm-3,20.00232,R,ugm-3,29.09438,R,ugm-3,40.66239,R,ugm-3
08-01-2018,11:00,6.40533,R,ugm-3,19.79680,R,ugm-3,29.61817,R,ugm-3,39.71443,R,ugm-3
08-01-2018,12:00,5.89798,R,ugm-3,20.52711,R,ugm-3,29.57056,R,ugm-3,38.11787,R,ugm-3
08-01-2018,13:00,6.37362,R,ugm-3,20.03589,R,ugm-3,29.80864,R,ugm-3,36.82067,R,ugm-3
08-01-2018,14:00,5.86627,R,ugm-3,18.81388,R,ugm-3,27.80870,R,ugm-3,33.57765,R,ugm-3
08-01-2018,15:00,7.54688,R,ugm-3,26.33193,R,ugm-3,37.90364,R,ugm-3,26.99184,R,ugm-3
08-01-2018,16:00,11.89109,R,ugm-3,30.43248,R,ugm-3,48.66523,R,ugm-3,18.11098,R,ugm-3
08-01-2018,17:00,7.19807,R,ugm-3,29.67619,R,ugm-3,40.71308,R,ugm-3,16.51442,R,ugm-3
08-01-2018,18:00,4.18566,R,ugm-3,26.10492,R,ugm-3,32.52285,R,ugm-3,17.01334,R,ugm-3
08-01-2018,19:00,3.48805,R,ugm-3,22.46043,R,ugm-3,27.80870,R,ugm-3,17.61205,R,ugm-3
08-01-2018,20:00,3.51976,R,ugm-3,22.22134,R,ugm-3,27.61823,R,ugm-3,16.16517,R,ugm-3
08-01-2018,21:00,3.23438,R,ugm-3,20.70660,R,ugm-3,25.66591,R,ugm-3,15.11743,R,ugm-3
08-01-2018,22:00,3.93199,R,ugm-3,21.16071,R,ugm-3,27.18967,R,ugm-3,13.62065,R,ugm-3
08-01-2018,23:00,3.71002,R,ugm-3,22.21532,R,ugm-3,27.90394,R,ugm-3,13.07184,R,ugm-3
08-01-2018,24:00,1.58548,R,ugm-3,23.23488,R,ugm-3,25.66591,R,ugm-3,12.62280,R,ugm-3
09-01-2018,01:00,1.71079,R,ugm-3,22.96007,R,ugm-3,25.58324,R,ugm-3,13.03857,R,ugm-3
09-01-2018,02:00,1.80583,R,ugm-3,25.05764,R,ugm-3,27.82655,R,ugm-3,10.97635,R,ugm-3
09-01-2018,03:00,1.39398,R,ugm-3,29.31662,R,ugm-3,31.45402,R,ugm-3,8.88087,R,ugm-3
09-01-2018,04:00,1.55238,R,ugm-3,27.54638,R,ugm-3,29.92666,R,ugm-3,9.97850,R,ugm-3
09-01-2018,05:00,1.01380,R,ugm-3,20.30583,R,ugm-3,21.86031,R,ugm-3,14.96775,R,ugm-3
09-01-2018,06:00,2.12265,R,ugm-3,18.27152,R,ugm-3,21.52620,R,ugm-3,15.41678,R,ugm-3
09-01-2018,07:00,2.47114,R,ugm-3,19.93274,R,ugm-3,23.72177,R,ugm-3,12.77248,R,ugm-3
09-01-2018,08:00,10.29642,R,ugm-3,27.88526,R,ugm-3,43.67288,R,ugm-3,5.93721,R,ugm-3
09-01-2018,09:00,16.22083,R,ugm-3,31.49746,R,ugm-3,56.36904,R,ugm-3,3.79183,R,ugm-3
09-01-2018,10:00,16.85445,R,ugm-3,30.38273,R,ugm-3,56.22586,R,ugm-3,2.79398,R,ugm-3
09-01-2018,11:00,14.47835,R,ugm-3,28.10751,R,ugm-3,50.30734,R,ugm-3,3.24301,R,ugm-3
09-01-2018,12:00,15.39711,R,ugm-3,26.69877,R,ugm-3,50.30734,R,ugm-3,2.89377,R,ugm-3
09-01-2018,13:00,25.72522,R,ugm-3,30.57503,R,ugm-3,70.01980,R,ugm-3,1.69635,R,ugm-3
09-01-2018,14:00,33.61386,R,ugm-3,32.08230,R,ugm-3,83.62283,R,ugm-3,1.79613,R,ugm-3
09-01-2018,15:00,36.14836,R,ugm-3,33.44641,R,ugm-3,88.87313,R,ugm-3,1.44688,R,ugm-3
09-01-2018,16:00,31.58626,R,ugm-3,33.90254,R,ugm-3,82.33413,R,ugm-3,1.29721,R,ugm-3
09-01-2018,17:00,23.72929,R,ugm-3,36.40373,R,ugm-3,72.78814,R,ugm-3,1.34710,R,ugm-3
09-01-2018,18:00,9.21926,R,ugm-3,36.60091,R,ugm-3,50.73691,R,ugm-3,2.84387,R,ugm-3
09-01-2018,19:00,15.17534,R,ugm-3,38.68491,R,ugm-3,61.95345,R,ugm-3,1.34710,R,ugm-3
09-01-2018,20:00,29.43193,R,ugm-3,41.93106,R,ugm-3,87.05939,R,ugm-3,1.14753,R,ugm-3
09-01-2018,21:00,20.68789,R,ugm-3,42.73770,R,ugm-3,74.45869,R,ugm-3,1.69635,R,ugm-3
09-01-2018,22:00,5.82936,R,ugm-3,37.40753,R,ugm-3,46.34576,R,ugm-3,5.48818,R,ugm-3
09-01-2018,23:00,0.85540,R,ugm-3,8.85489,R,ugm-3,10.16648,R,ugm-3,34.02669,R,ugm-3
09-01-2018,24:00,0.63363,R,ugm-3,13.34743,R,ugm-3,14.31898,R,ugm-3,29.58625,R,ugm-3
10-01-2018,01:00,0.60141,R,ugm-3,10.70351,R,ugm-3,11.62566,R,ugm-3,39.04920,R,ugm-3
10-01-2018,02:00,0.60141,R,ugm-3,13.43052,R,ugm-3,14.35266,R,ugm-3,36.12217,R,ugm-3
10-01-2018,03:00,0.82298,R,ugm-3,17.49226,R,ugm-3,18.75415,R,ugm-3,28.93765,R,ugm-3
10-01-2018,04:00,1.20282,R,ugm-3,19.82823,R,ugm-3,21.67252,R,ugm-3,29.73593,R,ugm-3
10-01-2018,05:00,1.17116,R,ugm-3,20.78577,R,ugm-3,22.58152,R,ugm-3,16.96345,R,ugm-3
10-01-2018,06:00,2.81712,R,ugm-3,30.94019,R,ugm-3,35.25971,R,ugm-3,8.73119,R,ugm-3
10-01-2018,07:00,13.61080,R,ugm-3,41.42096,R,ugm-3,62.29056,R,ugm-3,1.89592,R,ugm-3
10-01-2018,08:00,57.67181,R,ugm-3,56.05460,R,ugm-3,144.48348,R,ugm-3,1.44688,R,ugm-3
10-01-2018,09:00,133.60743,R,ugm-3,90.51596,R,ugm-3,295.37782,R,ugm-3,2.09549,R,ugm-3
10-01-2018,10:00,136.39289,R,ugm-3,92.60798,R,ugm-3,301.74083,R,ugm-3,3.79183,R,ugm-3
10-01-2018,11:00,140.82432,R,ugm-3,80.55058,R,ugm-3,296.47819,R,ugm-3,3.79183,R,ugm-3
10-01-2018,12:00,50.01178,R,ugm-3,63.30265,R,ugm-3,139.98631,R,ugm-3,9.97850,R,ugm-3
10-01-2018,13:00,16.87106,R,ugm-3,47.66488,R,ugm-3,73.53348,R,ugm-3,24.99614,R,ugm-3
10-01-2018,14:00,7.97656,R,ugm-3,38.14729,R,ugm-3,50.37785,R,ugm-3,37.21981,R,ugm-3
10-01-2018,15:00,3.98828,R,ugm-3,32.54123,R,ugm-3,38.65651,R,ugm-3,46.35013,R,ugm-3
10-01-2018,16:00,15.28841,R,ugm-3,59.46865,R,ugm-3,82.91056,R,ugm-3,21.80302,R,ugm-3
10-01-2018,17:00,44.34589,R,ugm-3,72.61218,R,ugm-3,140.60826,R,ugm-3,3.24301,R,ugm-3
10-01-2018,18:00,92.80668,R,ugm-3,75.95459,R,ugm-3,218.25617,R,ugm-3,2.34495,R,ugm-3
10-01-2018,19:00,156.84075,R,ugm-3,83.45383,R,ugm-3,323.93962,R,ugm-3,1.44688,R,ugm-3
10-01-2018,20:00,61.31191,R,ugm-3,65.35212,R,ugm-3,159.36241,R,ugm-3,1.54667,R,ugm-3
10-01-2018,21:00,50.32831,R,ugm-3,60.09030,R,ugm-3,137.25931,R,ugm-3,1.44688,R,ugm-3
10-01-2018,22:00,65.45846,R,ugm-3,57.31969,R,ugm-3,157.68793,R,ugm-3,1.54667,R,ugm-3
10-01-2018,23:00,6.67879,R,ugm-3,34.01338,R,ugm-3,44.25405,R,ugm-3,15.96560,R,ugm-3
10-01-2018,24:00,2.84877,R,ugm-3,20.27068,R,ugm-3,24.63874,R,ugm-3,25.34539,R,ugm-3
11-01-2018,01:00,2.05561,R,ugm-3,19.09900,R,ugm-3,22.25089,R,ugm-3,22.01922,R,ugm-3
11-01-2018,02:00,2.18211,R,ugm-3,17.89799,R,ugm-3,21.24384,R,ugm-3,19.42481,R,ugm-3
11-01-2018,03:00,3.09923,R,ugm-3,15.38881,R,ugm-3,20.14089,R,ugm-3,22.35184,R,ugm-3
11-01-2018,04:00,2.40348,R,ugm-3,12.61924,R,ugm-3,16.30453,R,ugm-3,25.54496,R,ugm-3
11-01-2018,05:00,2.08723,R,ugm-3,11.61756,R,ugm-3,14.81794,R,ugm-3,32.57980,R,ugm-3
11-01-2018,06:00,3.25735,R,ugm-3,11.54977,R,ugm-3,16.54430,R,ugm-3,33.87701,R,ugm-3
11-01-2018,07:00,2.56161,R,ugm-3,20.81678,R,ugm-3,24.74452,R,ugm-3,24.79657,R,ugm-3
11-01-2018,08:00,23.97156,R,ugm-3,54.26175,R,ugm-3,91.01764,R,ugm-3,6.08689,R,ugm-3
11-01-2018,09:00,68.72059,R,ugm-3,67.02631,R,ugm-3,172.39642,R,ugm-3,1.79613,R,ugm-3
11-01-2018,10:00,111.06614,R,ugm-3,73.40571,R,ugm-3,243.70476,R,ugm-3,6.63570,R,ugm-3
11-01-2018,11:00,6.76770,R,ugm-3,21.41684,R,ugm-3,31.79383,R,ugm-3,35.67314,R,ugm-3
11-01-2018,12:00,6.16683,R,ugm-3,19.12521,R,ugm-3,28.58088,R,ugm-3,42.00949,R,ugm-3
11-01-2018,13:00,3.79497,R,ugm-3,12.97929,R,ugm-3,18.79816,R,ugm-3,49.99229,R,ugm-3
11-01-2018,14:00,4.23772,R,ugm-3,13.40337,R,ugm-3,19.90112,R,ugm-3,50.59100,R,ugm-3
11-01-2018,15:00,3.73172,R,ugm-3,15.61786,R,ugm-3,21.33975,R,ugm-3,48.89465,R,ugm-3
11-01-2018,16:00,11.54304,R,ugm-3,37.44860,R,ugm-3,55.14767,R,ugm-3,31.18281,R,ugm-3
11-01-2018,17:00,122.07156,R,ugm-3,81.80300,R,ugm-3,268.97678,R,ugm-3,2.64430,R,ugm-3
11-01-2018,18:00,14.07302,R,ugm-3,54.09387,R,ugm-3,75.67220,R,ugm-3,6.88517,R,ugm-3
11-01-2018,19:00,77.19603,R,ugm-3,68.12945,R,ugm-3,186.49504,R,ugm-3,2.14538,R,ugm-3
11-01-2018,20:00,7.24207,R,ugm-3,46.15332,R,ugm-3,57.25767,R,ugm-3,9.92861,R,ugm-3
11-01-2018,21:00,9.99342,R,ugm-3,47.35349,R,ugm-3,62.67653,R,ugm-3,8.48173,R,ugm-3
11-01-2018,22:00,72.98994,R,ugm-3,51.89622,R,ugm-3,163.81256,R,ugm-3,4.68990,R,ugm-3
11-01-2018,23:00,4.80696,R,ugm-3,31.52053,R,ugm-3,38.89110,R,ugm-3,11.07614,R,ugm-3
11-01-2018,24:00,12.42853,R,ugm-3,37.14586,R,ugm-3,56.20267,R,ugm-3,1.99570,R,ugm-3
12-01-2018,01:00,41.80215,R,ugm-3,37.46938,R,ugm-3,101.56511,R,ugm-3,1.33047,R,ugm-3
12-01-2018,02:00,22.21233,R,ugm-3,32.75440,R,ugm-3,66.81283,R,ugm-3,0.99785,R,ugm-3
12-01-2018,03:00,6.09812,R,ugm-3,22.18149,R,ugm-3,31.53181,R,ugm-3,8.38194,R,ugm-3
12-01-2018,04:00,37.53662,R,ugm-3,23.10071,R,ugm-3,80.65606,R,ugm-3,9.03054,R,ugm-3
12-01-2018,05:00,8.34147,R,ugm-3,17.29973,R,ugm-3,30.08981,R,ugm-3,11.27571,R,ugm-3
12-01-2018,06:00,6.82484,R,ugm-3,20.00973,R,ugm-3,30.47434,R,ugm-3,5.53807,R,ugm-3
12-01-2018,07:00,38.73729,R,ugm-3,32.26700,R,ugm-3,91.66335,R,ugm-3,0.64860,R,ugm-3
12-01-2018,08:00,49.85925,R,ugm-3,34.87288,R,ugm-3,111.32267,R,ugm-3,0.54882,R,ugm-3
12-01-2018,09:00,133.58994,R,ugm-3,44.63156,R,ugm-3,249.46660,R,ugm-3,0.54882,R,ugm-3
12-01-2018,10:00,188.88378,R,ugm-3,61.89462,R,ugm-3,351.51238,R,ugm-3,0.99785,R,ugm-3
12-01-2018,11:00,159.56224,R,ugm-3,55.32609,R,ugm-3,299.98479,R,ugm-3,1.39699,R,ugm-3
12-01-2018,12:00,120.98294,R,ugm-3,48.62871,R,ugm-3,234.13330,R,ugm-3,1.74624,R,ugm-3
12-01-2018,13:00,43.79273,R,ugm-3,29.99506,R,ugm-3,97.14297,R,ugm-3,4.59011,R,ugm-3
12-01-2018,14:00,42.68685,R,ugm-3,37.07419,R,ugm-3,102.52645,R,ugm-3,3.19312,R,ugm-3
12-01-2018,15:00,39.30603,R,ugm-3,33.75023,R,ugm-3,94.01863,R,ugm-3,4.04129,R,ugm-3
12-01-2018,16:00,63.57213,R,ugm-3,45.57084,R,ugm-3,143.04674,R,ugm-3,1.09764,R,ugm-3
12-01-2018,17:00,146.26012,R,ugm-3,60.29295,R,ugm-3,284.55535,R,ugm-3,0.94796,R,ugm-3
12-01-2018,18:00,135.10657,R,ugm-3,62.06153,R,ugm-3,269.22205,R,ugm-3,1.79613,R,ugm-3
12-01-2018,19:00,149.23019,R,ugm-3,62.94893,R,ugm-3,291.76537,R,ugm-3,1.84602,R,ugm-3
12-01-2018,20:00,82.02447,R,ugm-3,50.73212,R,ugm-3,176.50123,R,ugm-3,1.14753,R,ugm-3
12-01-2018,21:00,8.30988,R,ugm-3,36.71909,R,ugm-3,49.46072,R,ugm-3,4.24086,R,ugm-3